Temp
-5 -6 -7 -6 -6 -6 -6 -6 -6 -6 -6 -5 -7 -7 -6 -6 -5 -6 -6 -6 -6 -5 -6 -6 -7 -7 -6 -6 -6 -6 -6 -6 -7 -7 -7 -7 -7 -6 -7 -7 -7 -7 -7 -6
-6 -5 -7 -6 -6 -5 -7 -6 -6 -6 -6 -5 -6 -6 -7 -6 -6 -6 -6 -6 -6 -6 -6 -6 -6 -6 -6 -6 -5 -6 -6 -6 -6 -7 -7 -7 -7 -7 -7 -7 -7 -7 -7 -6
-5 -7 -7 -6 -7 -6 -7 -6 -6 -6 -6 -6 -6 -6 -6 -7 -6 -5 -6 -6 -6 -6 -6 -6 -7 -7 -7 -6 -6 -7 -7 -8 -7 -7 -7 -7 -7 -7 -7 -8 -7 -7 -8 -7
-7 -7 -7 -7 -7 -7 -6 -6 -7 -6 -6 -6 -6 -5 -6 -6 -7 -5 -6 -6 -6 -6 -6 -7 -7 -7 -7 -7 -6 -7 -8 -8 -7 -8 -7 -7 -7 -8 -7 -7 -7 -8 -7 -7
-6 -7 -7 -7 -7 -7 -7 -7 -6 -7 -6 -6 -5 -5 -6 -5 -6 -5 -6 -6 -7 -6 -7 -6 -7 -7 -6 -6 -7 -8 -9 -8 -7 -7 -6 -7 -7 -7 -8 -7 -8 -7 -7 -7
-6 -7 -7 -7 -7 -7 -7 -7 -7 -6 -7 -6 -6 -6 -6 -4 -6 -5 -6 -7 -7 -7 -7 -6 -7 -6 -6 -7 -7 -7 -7 -7 -6 -7 -5 -6 -6 -7 -7 -8 -8 -7 -7 -7
-5 -6 -5 -5 -6 -7 -7 -7 -7 -6 -5 -5 -6 -6 -6 -6 -5 -6 -7 -7 -7 -7 -6 -6 -6 -7 -7 -7 -7 -7 -7 -6 -7 -6 -6 -6 -8 -7 -7 -7 -7 -7 -7 -7
-6 -6 -5 -5 -5 -7 -7 -7 -6 -6 -5 -5 -6 -6 -6 -5 -6 -6 -7 -7 -7 -7 -6 -6 -6 -6 -6 -6 -6 -6 -6 -6 -6 -7 -7 -7 -7 -7 -7 -7 -7 -7 -7 -8
-7 -7 -7 -6 -6 -7 -7 -7 -6 -6 -5 -5 -5 -6 -6 -6 -5 -6 -6 -7 -7 -7 -7 -6 -6 -6 -6 -6 -6 -6 -6 -6 -6 -6 -6 -6 -7 -7 -7 -7 -7 -7 -7 -7
-7 -7 -7 -7 -6 -6 -6 -6 -6 -6 -5 -5 -6 -5 -5 -6 -6 -6 -6 -7 -7 -7 -7 -6 -6 -6 -6 -6 -6 -6 -6 -6 -6 -6 -6 -6 -6 -7 -7 -7 -7 -7 -8 -8
-6 -7 -7 -8 -7 -5 -7 -7 -7 -6 -5 -5 -4 -4 -5 -6 -6 -6 -7 -7 -7 -7 -7 -7 -7 -7 -7 -6 -6 -6 -6 -6 -6 -6 -6 -6 -6 -6 -6 -7 -6 -6 -7 -7
-6 -7 -7 -7 -8 -6 -7 -7 -7 -6 -6 -5 -5 -5 -6 -6 -6 -6 -6 -7 -7 -7 -7 -7 -7 -7 -7 -6 -6 -6 -6 -6 -6 -6 -6 -6 -6 -6 -6 -6 -6 -6 -7 -7
-6 -6 -8 -7 -7 -7 -7 -7 -7 -6 -6 -6 -5 -5 -6 -6 -6 -6 -6 -6 -7 -7 -7 -7 -7 -7 -7 -7 -6 -6 -6 -6 -6 -6 -6 -6 -6 -6 -6 -6 -6 -7 -7 -7
-7 -8 -8 -7 -7 -7 -8 -6 -7 -7 -6 -5 -5 -6 -7 -6 -6 -7 -6 -7 -7 -7 -7 -7 -7 -7 -7 -7 -7 -6 -6 -6 -6 -6 -6 -6 -6 -6 -6 -7 -7 -7 -8 -8
-7 -7 -8 -8 -8 -7 -7 -7 -6 -7 -7 -6 -6 -6 -6 -6 -7 -6 -7 -7 -7 -7 -7 -7 -7 -7 -7 -7 -7 -6 -6 -6 -6 -6 -6 -6 -6 -7 -7 -7 -7 -7 -8 -8
-8 -7 -9 -9 -8 -8 -8 -8 -7 -8 -7 -7 -7 -7 -6 -7 -7 -7 -7 -7 -8 -8 -7 -7 -7 -8 -7 -8 -7 -6 -6 -7 -7 -6 -6 -6 -6 -6 -6 -7 -7 -8 -8 -8
-10 -9 -10 -9 -9 -8 -7 -7 -8 -8 -7 -7 -7 -7 -7 -7 -7 -7 -7 -7 -8 -8 -8 -8 -7 -7 -7 -7 -7 -7 -7 -7 -7 -6 -6 -6 -6 -6 -7 -7 -8 -8 -8 -9
-10 -10 -10 -9 -9 -9 -5 -8 -8 -8 -8 -8 -8 -7 -8 -8 -7 -7 -7 -8 -8 -8 -8 -8 -8 -8 -7 -7 -7 -7 -7 -7 -7 -7 -7 -6 -7 -7 -7 -8 -8 -8 -9 -9
-11 -11 -10 -10 -9 -8 -8 -8 -8 -8 -8 -8 -8 -8 -8 -8 -8 -8 -8 -8 -8 -8 -8 -8 -8 -8 -8 -8 -8 -7 -7 -7 -7 -7 -7 -7 -7 -7 -8 -8 -9 -9 -9 -9
-11 -11 -11 -10 -9 -8 -8 -8 -8 -9 -8 -8 -8 -8 -8 -8 -8 -8 -8 -8 -8 -8 -8 -9 -8 -8 -8 -8 -8 -7 -7 -7 -7 -7 -7 -7 -7 -8 -8 -8 -9 -9 -9 -10
-11 -10 -10 -10 -10 -9 -9 -8 -8 -8 -8 -8 -8 -8 -8 -8 -8 -8 -8 -8 -8 -8 -8 -9 -8 -8 -8 -8 -8 -7 -7 -7 -7 -7 -7 -7 -8 -8 -9 -9 -9 -9 -10 -10
-11 -11 -11 -10 -10 -9 -9 -8 -9 -9 -9 -8 -8 -8 -8 -8 -9 -8 -8 -8 -8 -9 -9 -8 -8 -8 -8 -8 -8 -7 -7 -7 -7 -7 -7 -8 -8 -9 -9 -9 -9 -10 -10 -10
-10 -10 -10 -10 -10 -10 -9 -8 -9 -9 -9 -9 -9 -9 -9 -9 -9 -9 -8 -8 -9 -9 -9 -8 -9 -8 -8 -8 -8 -7 -8 -8 -8 -8 -8 -8 -9 -9 -9 -9 -10 -10 -10 -11
-11 -11 -10 -10 -10 -10 -10 -10 -10 -9 -9 -10 -9 -9 -8 -9 -8 -8 -8 -9 -9 -9 -9 -9 -9 -9 -9 -9 -8 -8 -8 -8 -8 -8 -8 -9 -9 -10 -10 -10 -11 -11 -11 -11
-11 -10 -10 -10 -10 -11 -11 -10 -10 -9 -9 -9 -9 -9 -9 -9 -9 -9 -9 -9 -9 -10 -9 -9 -9 -9 -9 -9 -8 -8 -8 -8 -8 -8 -9 -9 -10 -10 -10 -10 -11 -11 -11 -11
-11 -12 -10 -9 -11 -10 -10 -10 -10 -10 -10 -9 -9 -9 -10 -9 -9 -9 -9 -8 -9 -10 -9 -10 -9 -9 -9 -9 -9 -8 -8 -8 -8 -8 -9 -10 -10 -10 -10 -11 -11 -12 -12 -12
Height
5923 5925 5930 5937 5940 5937 5937 5939 5939 5937 5933 5932 5933 5931 5927 5925 5923 5922 5920 5917 5914 5913 5912 5908 5905 5901 5896 5897 5898 5898 5899 5898 5897 5897 5896 5897 5895 5894 5893 5891 5888 5886 5885 5882
5921 5922 5929 5935 5933 5933 5935 5938 5938 5936 5932 5933 5935 5932 5929 5924 5923 5922 5920 5918 5914 5913 5912 5909 5904 5904 5901 5897 5897 5897 5896 5896 5894 5894 5895 5895 5894 5893 5893 5891 5888 5886 5885 5884
5917 5925 5924 5932 5930 5930 5934 5937 5938 5934 5932 5933 5933 5925 5925 5925 5924 5922 5920 5918 5915 5912 5911 5905 5902 5902 5900 5901 5896 5895 5893 5892 5891 5890 5891 5891 5891 5890 5889 5888 5888 5887 5886 5885
5914 5920 5925 5926 5925 5929 5934 5934 5931 5930 5931 5934 5928 5928 5921 5907 5920 5922 5920 5918 5915 5912 5907 5905 5900 5898 5900 5902 5893 5891 5891 5889 5887 5887 5886 5885 5886 5886 5885 5884 5885 5884 5885 5884
5910 5913 5917 5918 5922 5926 5930 5929 5927 5926 5927 5930 5933 5928 5917 5919 5914 5918 5919 5918 5915 5913 5908 5901 5897 5894 5895 5889 5892 5891 5888 5887 5883 5885 5881 5882 5883 5883 5882 5881 5882 5882 5881 5881
5904 5909 5911 5914 5917 5920 5924 5924 5924 5924 5927 5929 5925 5924 5916 5913 5909 5917 5917 5916 5915 5911 5908 5904 5898 5888 5894 5894 5894 5890 5889 5883 5880 5880 5875 5874 5877 5879 5879 5879 5878 5878 5878 5877
5899 5900 5904 5907 5910 5915 5918 5921 5923 5926 5927 5927 5917 5911 5920 5915 5917 5917 5916 5915 5914 5910 5908 5905 5902 5898 5897 5896 5895 5892 5890 5887 5884 5885 5881 5880 5879 5876 5876 5877 5877 5876 5876 5874
5893 5896 5898 5902 5905 5912 5914 5917 5920 5923 5923 5917 5905 5915 5920 5916 5916 5914 5913 5913 5912 5911 5909 5908 5905 5902 5900 5898 5896 5894 5891 5890 5887 5885 5884 5883 5882 5880 5880 5877 5877 5875 5873 5873
5894 5894 5899 5896 5900 5904 5911 5910 5915 5918 5920 5918 5910 5913 5896 5908 5912 5910 5910 5910 5910 5909 5908 5907 5905 5903 5901 5899 5897 5895 5892 5890 5888 5886 5885 5883 5881 5879 5879 5877 5875 5873 5870 5867
5886 5891 5893 5893 5893 5896 5901 5911 5912 5912 5915 5915 5912 5918 5916 5907 5906 5908 5906 5907 5907 5907 5906 5905 5903 5902 5900 5898 5897 5895 5893 5890 5888 5887 5884 5881 5880 5879 5877 5875 5872 5869 5866 5862
5877 5882 5888 5887 5885 5891 5895 5898 5903 5908 5912 5913 5915 5914 5901 5890 5897 5907 5904 5904 5904 5904 5903 5903 5902 5900 5898 5896 5894 5892 5890 5888 5886 5884 5882 5880 5878 5874 5870 5868 5865 5863 5860 5858
5869 5877 5878 5882 5883 5884 5890 5893 5896 5902 5906 5909 5909 5905 5894 5896 5889 5900 5902 5901 5901 5901 5901 5900 5899 5898 5896 5893 5891 5889 5887 5885 5883 5881 5878 5876 5873 5870 5868 5865 5862 5859 5856 5853
5862 5865 5872 5876 5880 5878 5880 5886 5892 5895 5902 5903 5906 5910 5895 5897 5895 5897 5899 5899 5898 5897 5898 5897 5896 5894 5893 5890 5888 5886 5884 5882 5880 5877 5875 5873 5870 5867 5863 5860 5857 5854 5850 5846
5853 5858 5863 5871 5876 5880 5875 5877 5883 5890 5894 5899 5901 5902 5893 5895 5892 5893 5894 5895 5894 5894 5893 5893 5892 5890 5889 5886 5884 5882 5880 5878 5876 5874 5871 5868 5865 5861 5858 5855 5852 5847 5843 5839
5847 5851 5856 5862 5867 5872 5873 5874 5873 5877 5884 5889 5896 5897 5898 5893 5889 5890 5889 5890 5889 5890 5889 5888 5887 5886 5884 5881 5880 5878 5876 5874 5872 5869 5866 5863 5859 5856 5853 5849 5845 5841 5837 5833
5840 5844 5848 5852 5858 5861 5863 5865 5871 5871 5875 5878 5884 5887 5893 5887 5880 5884 5884 5885 5885 5885 5885 5884 5882 5881 5878 5876 5875 5873 5871 5869 5867 5864 5861 5858 5854 5851 5846 5843 5839 5836 5832 5827
5835 5838 5841 5846 5850 5853 5854 5858 5862 5865 5870 5872 5875 5880 5883 5885 5874 5879 5879 5880 5880 5880 5880 5879 5877 5876 5874 5871 5869 5867 5865 5863 5861 5858 5856 5852 5848 5844 5840 5837 5833 5829 5825 5821
5827 5831 5836 5840 5843 5844 5853 5857 5856 5857 5861 5865 5868 5873 5873 5875 5871 5871 5873 5874 5874 5875 5875 5874 5872 5871 5869 5866 5864 5862 5860 5857 5856 5853 5848 5845 5841 5837 5835 5832 5828 5823 5819 5813
5823 5825 5833 5835 5838 5844 5846 5848 5852 5853 5853 5857 5862 5866 5861 5865 5865 5867 5868 5869 5869 5869 5869 5868 5867 5865 5863 5861 5860 5858 5855 5852 5849 5845 5841 5838 5835 5832 5830 5826 5822 5817 5812 5806
5820 5822 5825 5831 5834 5839 5842 5845 5845 5846 5845 5851 5855 5859 5854 5859 5859 5861 5862 5863 5863 5864 5863 5863 5862 5860 5859 5857 5854 5852 5849 5846 5843 5839 5836 5833 5830 5827 5823 5818 5814 5809 5804 5800
5811 5813 5819 5823 5826 5833 5836 5839 5842 5840 5846 5847 5849 5853 5844 5852 5855 5851 5856 5856 5858 5857 5855 5856 5857 5856 5854 5852 5849 5846 5842 5839 5836 5833 5830 5827 5824 5820 5816 5811 5806 5802 5797 5793
5798 5805 5809 5815 5820 5826 5826 5829 5834 5839 5840 5844 5842 5843 5839 5843 5845 5847 5850 5851 5852 5851 5851 5852 5851 5850 5848 5846 5843 5839 5836 5833 5830 5827 5824 5820 5816 5812 5808 5804 5799 5795 5791 5787
5787 5796 5808 5805 5812 5809 5812 5820 5823 5822 5826 5825 5830 5834 5825 5835 5838 5841 5844 5845 5846 5844 5847 5847 5846 5844 5842 5839 5836 5832 5829 5826 5823 5821 5817 5813 5810 5806 5803 5798 5794 5789 5784 5779
5787 5781 5771 5792 5796 5799 5798 5807 5807 5809 5815 5823 5825 5828 5828 5829 5832 5835 5837 5838 5836 5837 5841 5842 5840 5838 5836 5833 5829 5826 5823 5820 5818 5814 5811 5807 5803 5799 5795 5791 5786 5782 5778 5772
5775 5771 5780 5786 5789 5790 5789 5793 5803 5810 5814 5818 5821 5822 5823 5823 5826 5829 5829 5830 5830 5832 5834 5834 5833 5832 5830 5827 5823 5821 5818 5815 5812 5809 5804 5800 5796 5792 5787 5782 5778 5774 5770 5766
5764 5769 5772 5764 5773 5786 5787 5794 5799 5804 5808 5812 5815 5816 5818 5818 5821 5821 5822 5822 5821 5825 5826 5828 5828 5827 5824 5821 5818 5815 5811 5808 5805 5801 5797 5793 5789 5784 5779 5776 5772 5767 5763 5758
Wind_Speed
17 19 13 10 10 16 7 10 8 8 6 4 7 5 8 11 13 17 18 11 14 19 20 21 18 15 2 3 5 5 5 6 10 9 5 4 4 8 11 10 15 19 20 22
21 20 15 14 22 24 10 8 6 12 10 9 6 9 7 11 10 11 14 16 17 21 26 23 17 11 7 7 11 12 12 13 12 9 10 8 9 8 10 10 13 13 12 14
22 19 18 17 22 19 12 9 11 16 10 9 8 21 23 5 8 11 10 16 18 23 27 26 22 18 5 16 17 16 17 19 20 15 13 15 14 14 14 14 15 10 10 10
24 23 19 23 21 17 12 16 20 18 11 14 17 17 22 8 11 17 11 11 16 26 31 24 27 25 16 12 15 14 17 19 24 24 21 18 18 20 21 19 23 12 6 9
25 27 25 26 22 18 19 21 27 21 15 12 12 15 13 23 2 19 11 10 17 23 28 26 24 20 20 12 12 14 14 12 14 22 21 19 21 23 20 27 25 4 7 7
28 22 27 27 24 21 20 23 19 17 15 15 20 5 9 26 4 15 10 10 16 23 21 19 22 19 13 13 16 19 20 11 10 14 18 23 25 27 23 25 15 5 10 8
29 35 28 30 28 25 23 20 18 14 14 19 20 14 13 15 11 10 7 10 14 24 10 14 18 15 13 15 13 14 17 17 19 16 14 15 17 13 14 3 1 8 16 17
28 31 32 30 28 23 23 21 21 18 13 30 20 8 19 25 20 12 9 11 16 19 11 8 12 12 11 10 11 12 14 15 14 15 13 14 13 11 6 7 12 17 19 23
24 26 21 28 28 27 21 25 20 23 21 28 28 21 7 20 18 9 9 10 13 16 10 10 11 10 10 11 11 11 11 12 13 14 15 15 16 15 16 18 19 21 24 26
27 23 26 26 29 33 30 20 19 22 24 25 15 20 20 29 30 14 8 7 11 11 9 11 11 15 14 11 12 12 11 12 11 13 17 19 19 18 18 19 20 22 24 27
36 26 22 29 29 28 29 30 26 18 22 20 20 21 31 19 4 12 5 7 9 12 12 15 16 14 16 15 13 14 13 14 15 17 20 21 24 25 26 26 26 27 29 32
33 29 28 29 23 27 25 27 27 24 23 21 24 32 28 20 5 15 17 11 12 14 14 14 14 15 17 17 16 16 15 17 18 21 23 24 26 27 26 25 26 29 32 35
31 36 28 25 25 23 29 25 25 25 22 25 21 15 28 28 33 24 20 18 16 16 15 15 16 16 18 19 19 20 19 19 22 24 25 26 28 27 26 26 27 32 35 36
33 30 28 26 23 23 27 29 31 26 25 25 23 26 25 30 34 27 26 20 18 18 17 17 17 18 20 22 22 21 22 22 23 23 25 28 29 28 26 28 31 33 32 31
31 31 29 24 25 22 27 30 29 32 28 30 22 23 24 29 30 30 31 20 19 18 16 16 18 20 25 26 22 24 24 23 24 26 28 29 29 27 28 30 33 32 31 30
30 30 25 25 25 28 25 25 23 27 28 29 28 28 20 25 36 28 25 17 18 20 20 19 23 23 21 23 23 23 24 25 25 26 30 30 28 27 29 31 31 30 31 33
21 24 23 25 23 24 34 31 26 27 24 28 26 22 23 27 38 34 29 19 21 24 22 23 24 24 25 26 25 24 25 24 24 27 31 30 27 29 30 30 29 31 33 36
26 19 19 22 19 26 26 22 27 26 26 27 24 21 24 24 35 23 22 19 21 19 21 25 27 26 27 27 25 26 26 26 29 31 32 28 29 30 30 31 31 33 37 38
22 23 17 18 20 20 23 22 20 24 23 25 23 19 33 30 30 19 19 20 21 22 25 27 28 29 29 26 29 30 30 30 31 31 29 29 30 29 29 30 32 35 37 33
21 24 21 20 20 23 18 18 22 20 26 22 23 22 35 27 20 21 21 23 22 26 26 28 27 25 23 24 26 26 27 27 28 27 28 29 28 28 28 30 34 34 31 29
33 32 27 22 21 17 14 15 20 26 16 16 17 21 27 24 14 28 22 22 23 29 32 20 23 23 25 24 25 26 26 27 26 28 29 28 28 29 30 31 33 32 29 29
28 33 29 26 22 21 21 29 27 15 11 13 27 30 36 25 27 28 25 24 21 25 21 19 22 24 23 24 26 25 26 26 27 29 28 28 28 29 31 32 33 30 30 30
27 30 22 25 28 32 23 22 14 27 29 26 28 18 20 26 29 28 23 21 27 24 21 19 19 21 23 25 26 26 25 26 28 29 28 28 29 31 32 33 33 30 30 30
31 37 15 45 34 43 29 19 33 30 26 25 27 26 24 30 33 29 27 28 36 21 21 19 18 21 23 22 25 26 26 27 29 29 28 29 30 30 31 33 32 30 31 30
36 37 32 45 42 34 17 38 30 30 27 24 22 19 18 26 27 31 30 35 33 23 23 19 20 22 22 23 22 25 27 28 30 30 30 30 30 30 31 32 31 29 30 31
44 35 42 13 42 51 39 31 30 28 29 25 24 24 20 22 25 30 32 36 28 25 22 23 22 25 27 27 28 30 29 29 30 30 30 30 31 31 31 32 30 29 30 30
Wind_Direction
199 189 206 201 230 232 227 204 246 276 265 338 326 314 353 24 25 33 33 34 9 9 13 356 5 6 180 326 326 340 328 7 6 338 339 306 319 317 350 335 356 15 22 14
206 212 203 201 235 232 232 246 266 288 285 341 327 283 288 1 4 23 23 11 356 3 9 354 340 355 9 307 308 313 316 313 314 316 301 298 294 311 319 328 352 1 11 352
218 228 214 216 242 220 229 233 252 247 267 317 264 284 334 223 350 358 10 1 350 350 358 340 328 311 330 335 318 295 303 304 306 292 281 282 279 291 299 302 305 325 1 340
221 218 225 240 228 225 224 257 255 259 274 284 345 300 300 292 337 343 344 3 353 345 343 336 334 340 334 338 302 306 295 319 300 293 298 273 280 289 299 297 304 293 301 336
224 224 224 226 227 227 226 257 250 252 259 289 283 257 321 294 269 340 331 2 346 342 339 339 348 353 341 24 353 355 344 334 15 317 299 294 294 285 295 290 306 225 304 321
221 232 223 236 231 229 234 235 260 249 270 276 267 156 267 299 4 326 337 341 337 341 339 348 352 340 66 45 24 28 23 11 315 304 301 246 302 287 293 290 283 286 289 299
227 232 238 233 234 230 235 243 251 261 260 256 238 218 275 269 293 312 343 333 337 338 347 2 14 63 23 5 5 8 20 38 41 36 35 6 318 327 279 104 343 296 291 304
234 236 242 238 236 227 232 231 234 244 252 253 257 246 244 269 276 305 318 320 323 329 343 345 344 1 352 349 354 3 4 13 16 15 5 2 356 354 334 312 305 305 305 307
226 241 248 251 232 230 229 241 244 240 251 276 302 311 266 268 279 296 302 291 300 321 330 311 328 343 338 332 325 325 340 353 360 357 351 345 341 334 324 314 311 308 308 310
216 232 233 232 235 229 226 223 249 237 238 252 244 261 261 277 276 288 296 257 286 304 308 322 335 341 325 317 313 312 314 327 335 338 343 343 336 321 315 309 306 305 307 313
224 231 225 236 241 237 237 234 234 233 242 240 252 252 239 241 112 285 304 333 301 288 296 307 303 316 323 309 306 302 297 309 320 329 331 329 329 329 327 324 322 321 317 314
224 221 231 240 236 244 224 245 235 237 232 232 243 267 283 300 287 309 286 279 304 287 287 298 290 300 312 312 297 303 304 304 311 317 322 319 321 320 316 314 315 314 312 308
222 225 226 231 243 241 228 227 238 232 234 236 243 247 252 270 274 277 278 274 284 293 287 288 286 289 302 305 305 293 294 297 303 309 310 310 313 313 313 310 308 309 309 308
223 221 229 225 243 238 249 242 228 225 228 236 239 249 286 273 276 282 277 272 272 288 286 288 282 289 294 303 298 297 293 297 301 305 306 307 308 310 310 307 305 307 307 305
223 224 226 228 216 231 240 248 242 236 232 231 237 243 253 274 274 277 272 267 268 279 283 288 300 293 293 295 296 294 298 300 302 306 309 309 310 310 308 308 310 309 308 306
223 224 225 229 232 228 238 231 233 243 236 240 235 233 228 260 257 252 267 259 262 271 281 293 298 304 303 293 289 291 293 296 303 308 310 308 307 305 310 309 307 307 306 303
223 229 224 234 236 236 239 240 241 236 241 242 239 247 239 234 261 252 257 256 262 272 286 289 293 298 296 300 288 289 293 298 301 303 310 308 305 309 307 306 307 308 305 304
225 230 223 231 238 233 235 239 249 240 240 238 243 233 238 227 250 242 246 247 260 273 275 283 291 295 294 295 293 295 296 296 296 301 308 308 307 309 309 307 306 306 305 304
226 222 229 228 237 239 235 233 239 243 242 233 231 236 244 242 248 236 245 254 265 268 270 275 283 290 291 294 296 297 298 298 300 305 306 305 307 308 305 305 306 307 305 305
220 236 217 217 221 234 248 242 248 245 246 229 228 224 243 248 235 236 256 252 257 265 267 266 277 283 289 295 300 300 301 303 304 302 302 304 305 303 303 305 307 307 305 302
228 207 227 225 212 227 222 233 234 243 241 244 223 229 242 253 230 244 247 253 260 252 261 258 272 281 287 296 302 306 306 306 303 301 303 305 304 304 304 306 308 305 300 302
219 219 211 218 217 221 246 222 210 224 216 225 219 224 239 238 234 245 248 256 255 260 264 263 282 290 293 301 303 304 305 304 301 303 305 305 305 304 303 308 306 301 300 305
240 197 213 217 212 218 219 221 198 227 200 207 216 243 248 241 238 241 244 249 243 245 246 270 285 293 299 304 306 309 307 305 306 306 305 306 303 301 306 308 305 303 303 307
238 252 235 215 202 216 200 214 221 205 209 223 237 240 250 246 239 240 239 243 246 226 243 266 289 303 309 306 313 311 308 307 306 303 304 300 298 302 307 307 305 303 305 308
215 237 229 221 219 228 225 198 206 211 212 225 231 245 252 250 246 233 234 236 243 232 245 270 296 305 306 306 313 312 307 306 305 304 300 298 301 305 307 306 304 302 306 308
212 223 229 229 229 221 227 235 204 213 215 222 233 247 252 245 230 234 238 247 250 222 236 262 283 295 298 299 300 308 307 306 306 301 299 301 302 303 306 306 302 302 305 309